"Pseudo-MPEC" for P10OMaM

Created 2019 Jun 16 22:07:40 UT using Find_Orb

Click here for an explanation of pseudo-MPECs

 
 Astrometry: 
     P10OMaM  C2019 05 27lS4uduu3oSG3,7f:jJH'HOJ#Fh=8AQ4`csu=@bIWO@K?jt!9P*=QF52
     P10OMaM  C2019 05 27duwR8iNDW4$AaT8';8E[de8@sh$6siepu$`#q7lRZ*3wLB[ja;\[F52
     P10OMaM  C2019 05 274$`Kx)6nXn.\pZMwL1W9.1?+F/lAstrometrybENvJh!Hqlp)`YeF52
     P10OMaM  C2019 05 2719mb?MsPf(a`g.IYpoaF?OHA:k*T$IeqpM7C!gd]OJJ7s)ahE-atF52
     P10OMaM  C2019 06 01U\OI(3$,\C$-KoPL6:/?dYV8=ZaKv6ZXe*:xbG4+%AVtL(0fkP+$F52
     P10OMaM  C2019 06 01`wA$W\)Srcf7Gic'$o,y%ZKbElSOwX5tSm+5v9b:%y;_i%AGN'FSF52
     P10OMaM  C2019 06 07bLoa#6o5KChsNWog?cFs%`^'c2.redacted;c?Jii1al!V'MyIF(F51
     P10OMaM  C2019 06 07ZoIT3J'80CP7`yI5click$m$5TJ7e+d.Fi3pwF@$8*GBu-^t0Nx#F51
     P10OMaM  C2019 06 07Rh2WYwbw;qob:\27],;ujreIV93*l77Z#nm0j;[_WuuCfXO'.?w^F51
     P10OMaM KC2019 06 08F6xZujK2$NZq(D;CT!UOxB.N#G!v,!2^[-N`s,h-WpRrnhere2Ig291
     P10OMaM KC2019 06 08/G/=ug3wB/)CvAY)os#Ubd22^NOpMwYELFXIhB,fME!vrX+ZC=m9291
     P10OMaM KC2019 06 08UshM#^!=FX*`T6LLKNnD,X)q%C'y1TVIUV@U\8h@yBW%oO+wC)]w291
     P10OMaM KC2019 06 10agog0v@APvD`,oBW]cVZt5)I@FIcDePm,`i[sVY3bx)^U@!eu)xA291
     P10OMaM KC2019 06 10cED'Cc16orYO-,+AtG?#,tw-9x]9[[4yZYWB7mlcAKgMlat1Z_;B291
     P10OMaM  C2019 06 10xm%kO:(O_.,[yT'=4Ih!PZb$E_^v[6i:'rT-]Fbj\forxcY2f!h5F51
     P10OMaM ^C2019 06 12PA41Zra;bPUi#cQW!Qtkg6CQI/=$w49(UMmiyT^a^m*aV5s1gmVT695
     P10OMaM ^C2019 06 12]y_`/Wd`kWh^[i]5MxN@\5Prbb9UGlra,[pAc'0cekR[YT/S7x]c695
     P10OMaM ^C2019 06 12aEVpW=jIK6tly!bgHnC]'xFZexplanation5DR_=bV5?M%8v*(pw695
     P10OMaM KC2019 06 13\LSD9Um\8tZ^/I]MUBDqRZ7Y9)VDeuGRNFE^9(Pgiv@L#OHHGU\8734
     P10OMaM KC2019 06 134uuDs`Kn.WwT#5G_e4UTeuZh%)68rLH9quSvj;SAIVVp;A_qPJF0734
     P10OMaM KC2019 06 13l%9)+QUIXW)SJ%weX5iN+^ID/yHVd;5WxAcSDA1;Je);P;3?*aKC734
     P10OMaM  C2019 06 14.27423 17 13 14.99 +15 59 43.3    ~6E77       VNEOCPI52
     P10OMaM  C2019 06 14.27864 17 13 16.21 +15 59 51.9    ~6E77       VNEOCPI52

Station data:
(291) LPL/Spacewatch II  (N31.961669 W111.599905)  US/Arizona.  Observers J.
   V. Scotti, R. S. McMillan. 1.8-m f/2.7 reflector + CCD.
(695) Kitt Peak  (N31.958398 W111.594670)  US/Arizona.
(734) Farpoint Observatory, Eskridge  (N38.890107 W96.001400)  US/Kansas.
   Observer G. Hug. 0.69-m reflector + CCD.
(F51) Pan-STARRS 1, Haleakala  (N20.707235 W156.255910)  US/Hawaii.
   Observers N. Primak, A. Schultz, S. Watters, J. Thiel, T. Goggia. Measurer
   PS1 Science Consortium. 1.8-m Ritchey-Chrétien + CCD.
(F52) Pan-STARRS 2, Haleakala  (N20.707384 W156.255910)  US/Hawaii. 1.8-m
   Ritchey-Chrétien + CCD.
(I52) Steward Observatory, Mt. Lemmon Station  (N32.442547 W110.788920)
   US/Arizona.  Observers T. A. Pruyne, B. M. Africano, E. J. Christensen, G.
   A. Farneth, D. C. Fuls, A. R. Gibbs, A. D. Grauer, H. Groeller, J. A.
   Johnson, R. A. Kowalski, S. M. Larson, G. J. Leonard, R. L. Seaman, F. C.
   Shelly. 1.0-m reflector + CCD.

Orbital elements:  P10OMaM
   Perihelion 2019 Jul 19.670890 +/- 0.00272 TT = 16:06:04 (JD 2458684.170890)
Epoch 2019 Jun 14.0 TT = JDT 2458648.5   Earth MOID: 0.0015   AutoNEOCP
M 345.03739462 +/- 0.014            (J2000 ecliptic)
n   0.41946263 +/- 0.000386         Peri.  196.66192 +/- 0.0026
a   1.76742311 +/- 0.00108          Node   105.13267 +/- 0.0025
e   0.4331112 +/- 0.000351          Incl.    6.66328 +/- 0.0036
P   2.35/858.22d           H 25.4   G  0.15   U  7.5  
q 1.00193219 +/- 7.63e-6    Q 2.53291403 +/- 0.00218
From 23 observations 2019 May 27-June 14; mean residual 0".43
Residuals in arcseconds: 
190527 F52  .28+  .13+    190607 F51  .16+  .31-    190612 695  .17-  .23+    
190527 F52  .08-  .28+    190608 291  .91-  .20+    190612 695  .19-  .30+    
190527 F52  .07-  .25+    190608 291  .45-  .11+    190613 734  1.0-  .19+    
190527 F52  .13+  .33-    190608 291  .29-  .04-    190613 734  1.6+  .22+    
190601 F52  .07+  .57-    190610 291  .01+  .02+    190613 734  .82+  .47+    
190601 F52  .07-  .02+    190610 291  .05+  .36+    190614 I52  .41-  1.1-    
190607 F51  .19+  .14-    190610 F51  .24+  .06-    190614 I52  .25-  .19-    
190607 F51  .30+  .07-    190612 695  .05+  .39+    

Ephemerides (geocentric):
Date (UTC) HH   RA              Dec         delta   r     elong  mag " sig PA
---- -- -- --  -------------   -----------  ------ ------ -----  --- ---- ---
2019 06 16 22  17 29 47.130   +17 22 08.36  .06587 1.0666 139.2 21.1 .440 132
2019 06 16 23  17 30 05.794   +17 23 32.50  .06569 1.0665 139.2 21.1 .446 132
2019 06 17 00  17 30 24.567   +17 24 56.87  .06551 1.0663 139.2 21.1 .452 132
2019 06 17 01  17 30 43.451   +17 26 21.46  .06532 1.0661 139.1 21.1 .459 132
2019 06 17 02  17 31 02.445   +17 27 46.28  .06514 1.0660 139.1 21.1 .465 132
2019 06 17 03  17 31 21.551   +17 29 11.33  .06496 1.0658 139.1 21.1 .472 131
2019 06 17 04  17 31 40.771   +17 30 36.61  .06478 1.0657 139.1 21.1 .478 131
2019 06 17 05  17 32 00.104   +17 32 02.12  .06460 1.0655 139.1 21.1 .485 131
2019 06 17 06  17 32 19.551   +17 33 27.86  .06442 1.0654 139.0 21.1 .492 131
2019 06 17 07  17 32 39.114   +17 34 53.83  .06423 1.0652 139.0 21.1 .498 131
2019 06 17 08  17 32 58.793   +17 36 20.03  .06405 1.0651 139.0 21.1 .505 131
2019 06 17 09  17 33 18.590   +17 37 46.46  .06387 1.0649 139.0 21.1 .512 131
2019 06 17 10  17 33 38.505   +17 39 13.13  .06369 1.0648 138.9 21.1 .519 131
2019 06 17 11  17 33 58.539   +17 40 40.03  .06351 1.0646 138.9 21.1 .526 131
2019 06 17 12  17 34 18.694   +17 42 07.17  .06333 1.0644 138.9 21.1 .533 131
2019 06 17 13  17 34 38.969   +17 43 34.54  .06315 1.0643 138.9 21.1 .540 130
2019 06 17 14  17 34 59.367   +17 45 02.14  .06297 1.0641 138.8 21.0 .547 130
2019 06 17 15  17 35 19.887   +17 46 29.98  .06279 1.0640 138.8 21.0 .555 130
2019 06 17 16  17 35 40.532   +17 47 58.06  .06261 1.0638 138.8 21.0 .562 130
2019 06 17 17  17 36 01.301   +17 49 26.38  .06243 1.0637 138.8 21.0 .569 130
2019 06 17 18  17 36 22.197   +17 50 54.93  .06225 1.0635 138.7 21.0 .577 130
2019 06 17 19  17 36 43.219   +17 52 23.73  .06207 1.0634 138.7 21.0 .584 130
2019 06 17 20  17 37 04.370   +17 53 52.76  .06189 1.0632 138.7 21.0 .592 130
2019 06 17 21  17 37 25.650   +17 55 22.03  .06171 1.0631 138.7 21.0 .600 130
2019 06 17 22  17 37 47.059   +17 56 51.54  .06153 1.0629 138.6 21.0 .607 130
2019 06 17 23  17 38 08.600   +17 58 21.29  .06135 1.0628 138.6 21.0 .615 129
2019 06 18 00  17 38 30.274   +17 59 51.28  .06117 1.0626 138.6 21.0 .623 129
2019 06 18 01  17 38 52.080   +18 01 21.51  .06100 1.0625 138.6 21.0 .631 129
2019 06 18 02  17 39 14.021   +18 02 51.99  .06082 1.0623 138.6 21.0 .639 129
2019 06 18 03  17 39 36.097   +18 04 22.70  .06064 1.0622 138.5 21.0 .647 129
2019 06 18 04  17 39 58.310   +18 05 53.66  .06046 1.0620 138.5 21.0 .655 129
2019 06 18 05  17 40 20.661   +18 07 24.86  .06028 1.0619 138.5 21.0 .664 129
2019 06 18 06  17 40 43.151   +18 08 56.30  .06011 1.0617 138.4 21.0 .672 129
2019 06 18 07  17 41 05.780   +18 10 27.98  .05993 1.0616 138.4 20.9 .680 129
2019 06 18 08  17 41 28.550   +18 11 59.91  .05975 1.0614 138.4 20.9 .689 128
2019 06 18 09  17 41 51.463   +18 13 32.08  .05957 1.0613 138.4 20.9 .698 128
2019 06 18 10  17 42 14.519   +18 15 04.49  .05940 1.0611 138.3 20.9 .706 128
2019 06 18 11  17 42 37.720   +18 16 37.15  .05922 1.0610 138.3 20.9 .715 128
2019 06 18 12  17 43 01.067   +18 18 10.05  .05904 1.0608 138.3 20.9 .724 128
2019 06 18 13  17 43 24.560   +18 19 43.19  .05887 1.0607 138.3 20.9 .733 128
2019 06 18 14  17 43 48.202   +18 21 16.57  .05869 1.0605 138.2 20.9 .742 128
2019 06 18 15  17 44 11.993   +18 22 50.20  .05852 1.0604 138.2 20.9 .751 128
2019 06 18 16  17 44 35.935   +18 24 24.08  .05834 1.0602 138.2 20.9 .760 128
2019 06 18 17  17 45 00.029   +18 25 58.19  .05816 1.0601 138.2 20.9 .769 127
2019 06 18 18  17 45 24.276   +18 27 32.55  .05799 1.0599 138.1 20.9 .779 127
2019 06 18 19  17 45 48.677   +18 29 07.16  .05781 1.0598 138.1 20.9 .788 127
2019 06 18 20  17 46 13.234   +18 30 42.00  .05764 1.0596 138.1 20.9 .798 127
2019 06 18 21  17 46 37.948   +18 32 17.09  .05746 1.0595 138.1 20.9 .807 127